contact:dominique.lefevre@mio.osupytheas.fr, maurice.libes@osupytheas.fr
Project:EMSO Ligure-ouest http://www.emso-fr.org/EMSO-France
Sensor Aquadopp, line 13 Serial AQD14315 
DOI : "https://doi.org/10.17882/74513; https://doi.org/10.17882/83244" 
Title:EMSO Ligure Ouest : Data ligne ALBATROSS capteur AQUADOPP - deploiement 2021
Id,Date,Profondeur,Latitude,Longitude,X_East,Y_North,Z_Up,Amplitude_X,Amplitude_Y,Amplitude_Z,Batterie,SoundSpeed,Heading,Pitch,Roll,Pressure,Temperature,Speed,Direction
, , m, degrees North, degrees East, m.s-1, m.s-1,m.s-1, 1, 1, 1, Volt, m.s-1, degree, degree, degree, dbar, degree_C, m.s-1, degree
13,2022-05-27T22:00:00,2400.0,42.79,6.0312,-0.047,-0.024,-0.036,81.0,70.0,70.0,11.8,1504.9,248.3,-0.9,-0.6,2394.381,13.34,0.052,243.0
13,2022-05-27T22:30:00,2400.0,42.79,6.0312,-0.038,-0.003,-0.023,77.0,69.0,70.0,11.8,1504.9,249.1,-0.9,-0.6,2394.378,13.34,0.038,265.5
13,2022-05-27T23:00:00,2400.0,42.79,6.0312,-0.028,0.008,0.0,76.0,67.0,70.0,11.8,1504.9,251.2,-0.5,-0.5,2394.394,13.34,0.029,285.9
13,2022-05-27T23:30:00,2400.0,42.79,6.0312,-0.039,-0.018,0.003,73.0,69.0,70.0,11.8,1504.9,249.3,-0.4,-0.4,2394.37,13.34,0.042,245.2
13,2022-05-28T00:00:00,2400.0,42.79,6.0312,-0.019,-0.007,-0.026,75.0,68.0,71.0,11.8,1504.9,250.2,-0.3,-0.4,2394.396,13.34,0.02,249.8
13,2022-05-28T00:30:00,2400.0,42.79,6.0312,-0.037,-0.009,0.0,75.0,65.0,72.0,11.8,1504.9,253.5,-0.5,-0.5,2394.315,13.34,0.038,256.3
13,2022-05-28T01:00:00,2400.0,42.79,6.0312,-0.028,-0.02,-0.019,75.0,67.0,69.0,11.8,1504.9,250.5,-0.4,-0.4,2394.324,13.34,0.034,234.5
13,2022-05-28T01:30:00,2400.0,42.79,6.0312,-0.025,-0.014,-0.003,75.0,66.0,66.0,11.8,1504.9,253.5,-0.3,-0.4,2394.351,13.34,0.028,240.7
13,2022-05-28T02:00:00,2400.0,42.79,6.0312,-0.056,0.001,-0.002,76.0,66.0,72.0,11.8,1504.9,248.5,-0.4,-0.3,2394.351,13.34,0.056,271.0
13,2022-05-28T02:30:00,2400.0,42.79,6.0312,-0.047,0.011,-0.041,75.0,70.0,69.0,11.8,1504.8,253.1,-0.7,-0.3,2394.305,13.33,0.048,283.2
13,2022-05-28T03:00:00,2400.0,42.79,6.0312,-0.049,0.0,-0.006,78.0,72.0,74.0,11.8,1504.8,250.3,-0.6,-0.4,2394.405,13.33,0.049,270.0
13,2022-05-28T03:30:00,2400.0,42.79,6.0312,-0.04,-0.005,-0.018,77.0,70.0,73.0,11.8,1504.8,256.5,-0.4,-0.4,2394.424,13.33,0.04,262.9
13,2022-05-28T04:00:00,2400.0,42.79,6.0312,-0.035,-0.003,-0.017,77.0,69.0,72.0,11.8,1504.9,258.3,-0.2,-0.6,2394.401,13.34,0.035,265.1
13,2022-05-28T04:30:00,2400.0,42.79,6.0312,-0.039,0.0,-0.01,78.0,69.0,72.0,11.8,1504.8,258.6,-0.5,-0.4,2394.49,13.33,0.039,270.0
13,2022-05-28T05:00:00,2400.0,42.79,6.0312,-0.061,0.014,-0.038,79.0,71.0,72.0,11.7,1504.8,262.0,-0.4,-0.6,2394.413,13.33,0.062,282.9
13,2022-05-28T05:30:00,2400.0,42.79,6.0312,-0.05,-0.008,-0.014,76.0,71.0,72.0,11.7,1504.8,267.1,-0.6,-0.5,2394.478,13.33,0.05,260.9
13,2022-05-28T06:00:00,2400.0,42.79,6.0312,-0.054,0.006,-0.014,78.0,68.0,68.0,11.8,1504.8,263.0,-0.3,-0.4,2394.474,13.33,0.054,276.3
13,2022-05-28T06:30:00,2400.0,42.79,6.0312,-0.06,0.009,0.022,75.0,67.0,72.0,11.8,1504.8,270.5,-0.1,-0.6,2394.42,13.33,0.06,278.5
13,2022-05-28T07:00:00,2400.0,42.79,6.0312,-0.032,0.024,-0.006,73.0,67.0,69.0,11.8,1504.8,267.6,-0.6,-0.6,2394.45,13.33,0.04,306.9
13,2022-05-28T07:30:00,2400.0,42.79,6.0312,-0.058,0.016,-0.007,75.0,68.0,68.0,11.8,1504.8,264.4,-0.6,-0.3,2394.444,13.33,0.06,285.4
13,2022-05-28T08:00:00,2400.0,42.79,6.0312,-0.053,0.022,0.01,74.0,66.0,70.0,11.7,1504.8,266.0,-0.3,-0.6,2394.443,13.33,0.057,292.5
13,2022-05-28T08:30:00,2400.0,42.79,6.0312,-0.048,0.028,-0.01,73.0,68.0,68.0,11.8,1504.8,270.6,-0.6,-0.5,2394.44,13.33,0.055,300.3
13,2022-05-28T09:00:00,2400.0,42.79,6.0312,-0.023,0.03,0.011,76.0,68.0,70.0,11.8,1504.8,272.2,-0.4,-0.5,2394.411,13.33,0.037,322.5
13,2022-05-28T09:30:00,2400.0,42.79,6.0312,-0.042,0.022,-0.027,77.0,67.0,72.0,11.7,1504.8,271.0,-0.4,-0.3,2394.366,13.33,0.047,297.6
13,2022-05-28T10:00:00,2400.0,42.79,6.0312,-0.015,0.03,0.0,78.0,68.0,73.0,11.8,1504.8,269.8,-1.1,-0.6,2394.364,13.33,0.033,333.4
13,2022-05-28T10:30:00,2400.0,42.79,6.0312,-0.053,0.013,-0.012,78.0,68.0,70.0,11.8,1504.8,271.4,-0.5,-0.6,2394.368,13.33,0.054,283.8
13,2022-05-28T11:30:00,2400.0,42.79,6.0312,-0.027,0.038,-0.001,74.0,64.0,70.0,11.8,1504.8,272.0,-0.1,-0.6,2394.282,13.33,0.046,324.6
13,2022-05-28T12:00:00,2400.0,42.79,6.0312,-0.021,0.036,0.006,79.0,69.0,72.0,11.8,1504.8,265.2,-0.4,-0.3,2394.291,13.33,0.041,329.7
13,2022-05-28T12:30:00,2400.0,42.79,6.0312,-0.044,0.024,-0.032,76.0,68.0,69.0,11.8,1504.8,267.4,-0.5,-0.3,2394.257,13.33,0.05,298.6
13,2022-05-28T13:00:00,2400.0,42.79,6.0312,-0.024,0.05,-0.019,77.0,70.0,71.0,11.8,1504.8,266.2,-0.4,-0.4,2394.32,13.33,0.055,334.4
13,2022-05-28T13:30:00,2400.0,42.79,6.0312,-0.023,0.024,0.021,77.0,70.0,71.0,11.8,1504.8,269.3,-0.6,-0.5,2394.307,13.33,0.033,316.2
13,2022-05-28T14:00:00,2400.0,42.79,6.0312,-0.032,0.019,-0.021,76.0,68.0,72.0,11.8,1504.8,279.2,0.0,-0.5,2394.325,13.33,0.037,300.7
13,2022-05-28T14:30:00,2400.0,42.79,6.0312,-0.04,0.027,-0.005,78.0,70.0,73.0,11.8,1504.8,276.6,-0.6,-0.5,2394.337,13.33,0.048,304.0
13,2022-05-28T15:00:00,2400.0,42.79,6.0312,-0.022,0.036,0.006,78.0,68.0,74.0,11.8,1504.8,283.8,-0.6,-0.5,2394.368,13.33,0.042,328.6
13,2022-05-28T15:30:00,2400.0,42.79,6.0312,-0.011,0.038,-0.055,75.0,67.0,69.0,11.8,1504.8,283.2,-0.6,-0.4,2394.424,13.33,0.039,343.9
13,2022-05-28T16:00:00,2400.0,42.79,6.0312,-0.022,0.027,-0.037,80.0,70.0,72.0,11.8,1504.8,283.4,-0.4,-0.5,2394.384,13.33,0.034,320.8
13,2022-05-28T16:30:00,2400.0,42.79,6.0312,-0.033,0.07,-0.002,76.0,67.0,71.0,11.8,1504.8,277.3,-0.5,-0.4,2394.396,13.33,0.077,334.8
13,2022-05-28T17:00:00,2400.0,42.79,6.0312,-0.035,0.017,-0.001,75.0,70.0,73.0,11.8,1504.8,269.7,-0.3,-0.3,2394.393,13.33,0.038,295.9
13,2022-05-28T17:30:00,2400.0,42.79,6.0312,-0.033,0.035,0.006,76.0,67.0,73.0,11.8,1504.8,273.0,-0.5,-0.5,2394.496,13.33,0.048,316.7
13,2022-05-28T18:00:00,2400.0,42.79,6.0312,-0.032,0.03,-0.004,77.0,72.0,72.0,11.8,1504.8,270.4,-0.6,-0.3,2394.465,13.33,0.043,313.1
13,2022-05-28T18:30:00,2400.0,42.79,6.0312,-0.034,0.027,-0.022,78.0,69.0,71.0,11.8,1504.8,272.3,-0.6,-0.4,2394.51,13.33,0.043,308.5
13,2022-05-28T19:00:00,2400.0,42.79,6.0312,-0.022,0.04,-0.011,77.0,72.0,72.0,11.8,1504.8,272.6,-0.5,-0.4,2394.455,13.33,0.045,331.2
13,2022-05-28T19:30:00,2400.0,42.79,6.0312,-0.024,0.022,-0.016,74.0,68.0,72.0,11.8,1504.8,267.9,-0.2,-0.4,2394.454,13.33,0.032,312.5
13,2022-05-28T20:00:00,2400.0,42.79,6.0312,-0.037,0.037,-0.019,73.0,69.0,67.0,11.8,1504.8,274.6,-0.5,-0.4,2394.473,13.33,0.052,315.0
13,2022-05-28T20:30:00,2400.0,42.79,6.0312,-0.024,0.043,0.028,75.0,70.0,68.0,11.8,1504.8,272.2,-0.2,-0.4,2394.423,13.33,0.049,330.8
13,2022-05-28T21:00:00,2400.0,42.79,6.0312,-0.038,0.048,-0.011,77.0,72.0,73.0,11.8,1504.8,274.8,-0.2,-0.4,2394.43,13.33,0.061,321.6
